[[{"header":{"parameterUnit":"m.s-1","parameterCategory":1,"la1":30.2991,"la2":30.254,"lo1":-89.0895,"lo2":-89.0444,"dy":0.0017,"dx":0.0017,"nx":28,"ny":28,"refTime":"2024-07-05T09:00:00:Z","depth":0,"parameterNumber":2,"parameterNumberName":"U-component_of_WINDS"},"data":[0,0,0,0,0,0,0,0,0,0,0,0,0,0,0,0,0,0,0,0,0,0,0,0,0,0,0,0,0,0,0,0,0,0,0,0,0,0,0,0,0,0,0,0,0,0,0,0,0,0,0,0,0,0,0,0,0,0,2.4622,2.4622,0,2.4604,2.4604,2.4604,2.4475,2.4472,2.4469,2.4466,2.4449,2.4451,2.4454,0,0,0,0,0,0,0,0,0,0,0,0,0,2.4548,2.455,2.4622,2.4622,2.4622,2.4604,2.4604,2.4604,2.4476,2.4472,2.4468,2.4464,2.4448,2.4451,2.4454,0,0,0,0,0,0,0,0,0,0,0,0,0,2.456,2.4551,2.4623,2.4556,2.455,2.4604,2.4604,2.4603,2.4476,2.4472,2.4467,2.4463,2.4447,2.4451,2.4455,2.4572,0,0,2.4466,2.4468,0,0,0,0,0,0,0,0,2.456,2.4563,2.4566,2.4561,2.4554,2.4537,2.4571,2.4593,2.4478,2.4504,2.4466,2.446,2.4482,2.4483,2.449,2.4571,2.457,2.4466,2.4468,2.447,2.4471,0,0,0,0,0,0,0,2.4559,2.4563,2.4615,2.4566,2.4559,2.4527,2.4524,2.4575,2.452,2.4502,2.4492,2.4492,2.4478,2.4486,2.4488,2.457,2.4466,2.4469,2.4472,2.4473,2.4745,2.4749,0,0,0,0,0,0,2.4567,2.4563,2.4616,2.4615,2.4545,2.4533,2.4529,2.4547,2.4519,2.451,2.4496,2.4486,2.4482,2.4484,2.4487,2.4621,2.447,2.4474,2.4476,2.474,2.4746,2.4751,0,0,0,0,0,0,2.4566,2.4573,2.4616,2.4586,2.4589,2.4539,2.4561,2.4549,2.4557,2.4515,2.4504,2.4514,2.4479,2.4482,2.4551,2.4619,2.4475,2.4479,2.4734,2.4742,2.4749,2.4891,0,0,0,0,0,0,2.4565,2.4573,2.4617,2.4588,2.4592,2.4681,2.4565,2.4552,2.4564,2.4551,2.4529,2.4521,2.4475,2.4546,2.4555,2.4621,2.4482,2.4728,2.4737,2.4746,2.488,2.4902,2.4921,0,0,0,0,0,2.4562,2.4659,2.462,2.4627,2.4645,2.4685,2.4687,2.4631,2.457,2.4614,2.4586,2.4522,2.461,2.4554,2.4563,2.4632,2.4723,2.4735,2.4745,2.487,2.4898,2.4921,0,0,0,0,0,0,2.4698,2.4654,2.4611,2.4701,2.4697,2.4663,2.4716,2.4662,2.4677,2.4664,2.4595,2.4592,2.4671,2.4658,2.4597,2.4743,2.4656,2.4669,2.4748,2.4773,2.4794,2.4794,2.4485,0,0,0,0,0,2.4739,2.4774,2.4734,2.4817,2.4818,2.4768,2.4783,2.474,2.4735,2.4733,2.471,2.4707,2.4734,2.4753,2.4776,2.4878,2.487,2.4929,2.495,2.4967,2.4979,2.503,2.5056,2.4788,2.4788,2.4788,0,0,2.4823,2.4803,2.483,2.4844,2.4836,2.4874,2.4767,2.4813,2.484,2.474,2.4802,2.4787,2.4779,2.4864,2.4901,2.4856,2.5052,2.4981,2.4996,2.4998,2.5045,2.507,2.5093,2.4796,2.4794,2.4793,0,0,2.4994,2.4984,2.5051,2.5045,2.5035,2.5001,2.5017,2.4991,2.4976,2.5038,2.4963,2.4995,2.5043,2.504,2.5045,2.5215,2.5157,2.5225,2.5333,2.5384,2.5405,2.5423,2.5482,2.5504,2.5237,2.5238,2.5238,0,2.51,2.5154,2.5093,2.5142,2.515,2.506,2.5127,2.5125,2.5124,2.5131,2.5081,2.5139,2.5127,2.521,2.5252,2.5259,2.5275,2.5226,2.5407,2.5424,2.5441,2.5496,2.5519,2.5246,2.5245,2.5244,2.5243,0,2.5283,2.5322,2.5378,2.5376,2.5391,2.545,2.5397,2.5419,2.5376,2.5347,2.5411,2.5395,2.5411,2.5428,2.5387,2.5505,2.5478,2.5419,2.5329,2.5475,2.5526,2.5547,2.5258,2.5255,2.5252,2.525,0,0,2.554,2.5503,2.5524,2.5522,2.5504,2.5532,2.5587,2.5602,2.5622,2.5624,2.5667,2.571,2.5654,2.566,2.5617,2.5663,2.5796,2.5597,2.5596,2.5633,2.5924,2.5967,2.5993,2.5758,2.5762,2.5765,2.5924,0,2.5703,2.5792,2.5738,2.5836,2.587,2.5785,2.5832,2.5826,2.5801,2.5827,2.5799,2.583,2.5755,2.5758,2.5799,2.5772,2.5854,2.576,2.5797,2.5799,2.5799,2.602,2.6066,2.6217,2.5944,2.5947,2.595,0,2.5904,2.5913,2.6014,2.5988,2.6,2.6043,2.6052,2.6078,2.607,2.6048,2.6055,2.6001,2.6052,2.5966,2.6035,2.5972,2.5985,2.5974,2.5978,2.5978,2.5882,2.6024,2.6264,2.6286,2.5981,2.5978,2.5976,0,2.6079,2.6116,2.6181,2.6182,2.6153,2.6185,2.6175,2.6162,2.6174,2.6183,2.619,2.6205,2.6213,2.6226,2.6178,2.612,2.6254,2.6163,2.6237,2.6238,2.6267,2.6266,2.651,2.6279,2.6278,2.6278,2.6278,0,2.6265,2.633,2.6258,2.6298,2.6367,2.6305,2.6376,2.6357,2.6346,2.638,2.6309,2.6343,2.6278,2.6306,2.6269,2.6331,2.6336,2.6319,2.6308,2.6325,2.6327,2.633,2.6318,2.6284,2.6283,2.6281,2.628,0,2.647,2.6425,2.649,2.6457,2.645,2.6503,2.6475,2.651,2.6481,2.6525,2.6532,2.6486,2.6514,2.6468,2.6492,2.6466,2.6552,2.6526,2.6555,2.6547,2.6622,2.6615,2.6876,2.6907,2.6658,2.666,2.6662,0,2.6591,2.6638,2.6611,2.6628,2.6621,2.6651,2.6662,2.6604,2.6619,2.6613,2.6649,2.6671,2.6686,2.6736,2.6704,2.6722,2.6695,2.6785,2.6697,2.6711,2.6694,2.6691,2.6695,2.6803,2.6806,2.6808,2.681,0,2.681,2.6785,2.6804,2.6816,2.6832,2.6838,2.684,2.6858,2.6796,2.6817,2.6845,2.6856,2.688,2.6903,2.6912,2.6902,2.6846,2.6839,2.6856,2.6872,2.6886,2.6878,2.6602,2.6832,2.683,2.6829,2.6827,2.6826,2.6975,2.7012,2.6998,2.7022,2.7016,2.7019,2.705,2.7024,2.7046,2.7059,2.7024,2.706,2.705,2.7057,2.7053,2.7081,2.7041,2.7067,2.7073,2.708,2.7091,2.6883,2.7082,2.7082,2.7081,2.7081,2.708,0,2.7188,2.7175,2.7197,2.72,2.7219,2.7164,2.7163,2.7182,2.7214,2.721,2.7225,2.7257,2.7279,2.7249,2.7266,2.7294,2.7269,2.73,2.7296,2.7295,2.7126,2.7108,2.732,2.732,2.732,2.732,2.732,2.732,2.7301,2.736,2.7334,2.7391,2.7377,2.741,2.7414,2.7417,2.7412,2.745,2.7467,2.7448,2.7433,2.7448,2.7466,2.7457,2.7465,2.7506,2.7488,2.733,2.7307,2.7284,2.7267,2.7509,2.7509,2.7653,2.7655,2.7656]},{"header":{"parameterUnit":"m.s-1","parameterCategory":1,"la1":30.2991,"la2":30.254,"lo1":-89.0895,"lo2":-89.0444,"dy":0.0017,"dx":0.0017,"nx":28,"ny":28,"refTime":"2024-07-05T09:00:00:Z","depth":0,"parameterNumber":3,"parameterNumberName":"V-component_of_WINDS"},"data":[0,0,0,0,0,0,0,0,0,0,0,0,0,0,0,0,0,0,0,0,0,0,0,0,0,0,0,0,0,0,0,0,0,0,0,0,0,0,0,0,0,0,0,0,0,0,0,0,0,0,0,0,0,0,0,0,0,0,1.6307,1.6308,0,1.6411,1.6412,1.6413,1.6428,1.6427,1.6426,1.6425,1.6532,1.6535,1.6539,0,0,0,0,0,0,0,0,0,0,0,0,0,1.6119,1.6122,1.6307,1.6308,1.6309,1.641,1.6412,1.6413,1.6428,1.6427,1.6426,1.6425,1.653,1.6535,1.6539,0,0,0,0,0,0,0,0,0,0,0,0,0,1.6209,1.6123,1.6306,1.6329,1.6332,1.641,1.6412,1.6414,1.6429,1.6427,1.6426,1.6424,1.6529,1.6534,1.654,1.6602,0,0,1.6557,1.6559,0,0,0,0,0,0,0,0,1.6204,1.6216,1.6324,1.6328,1.6331,1.6405,1.6385,1.6477,1.6429,1.6392,1.6425,1.6424,1.6491,1.6499,1.6522,1.6607,1.6612,1.6557,1.6561,1.6563,1.6565,0,0,0,0,0,0,0,1.6198,1.6212,1.6348,1.6326,1.633,1.6333,1.6344,1.6402,1.6448,1.6395,1.6396,1.6409,1.6492,1.6516,1.6524,1.6614,1.6557,1.6562,1.6565,1.6568,1.6753,1.6755,0,0,0,0,0,0,1.6188,1.6207,1.6344,1.6351,1.6263,1.6338,1.635,1.6383,1.6447,1.6456,1.641,1.6409,1.6508,1.6518,1.6528,1.6604,1.6563,1.6568,1.6571,1.6752,1.6754,1.6755,0,0,0,0,0,0,1.6184,1.62,1.634,1.6279,1.6297,1.6342,1.6379,1.6386,1.641,1.6458,1.6466,1.6426,1.6507,1.652,1.6583,1.6608,1.6571,1.6576,1.675,1.6752,1.6754,1.6758,0,0,0,0,0,0,1.6178,1.6198,1.6223,1.628,1.63,1.6394,1.638,1.6389,1.6419,1.6419,1.6476,1.6484,1.6507,1.6575,1.6589,1.6615,1.658,1.6748,1.6751,1.6754,1.6756,1.676,1.6764,0,0,0,0,0,1.6172,1.6221,1.6225,1.6241,1.6333,1.6396,1.6408,1.6433,1.6421,1.6446,1.6477,1.6482,1.6603,1.6581,1.6597,1.6625,1.6746,1.675,1.6753,1.6754,1.6759,1.6764,0,0,0,0,0,0,1.6167,1.6229,1.6234,1.6303,1.6344,1.6398,1.6431,1.6438,1.6483,1.6482,1.6511,1.6523,1.6584,1.6611,1.6586,1.6688,1.6674,1.6681,1.6669,1.6674,1.6678,1.667,1.6585,0,0,0,0,0,1.6174,1.622,1.6272,1.6327,1.6348,1.6385,1.6414,1.643,1.6473,1.6491,1.6527,1.6569,1.6616,1.6646,1.6693,1.676,1.6771,1.6787,1.6791,1.6794,1.6799,1.6834,1.6841,1.6767,1.6767,1.6767,0,0,1.6189,1.6228,1.6256,1.6327,1.6361,1.6408,1.64,1.645,1.6485,1.6499,1.656,1.6587,1.6636,1.67,1.6731,1.6725,1.6822,1.6798,1.68,1.6804,1.6839,1.6846,1.6852,1.677,1.6769,1.6769,0,0,1.6239,1.6275,1.6324,1.6357,1.6408,1.6433,1.6444,1.6497,1.6516,1.6578,1.6588,1.6629,1.6711,1.6745,1.6772,1.6833,1.6839,1.6847,1.6868,1.6902,1.6908,1.6913,1.6934,1.6941,1.6853,1.6853,1.6853,0,1.6251,1.6323,1.6348,1.6398,1.6428,1.6442,1.6491,1.6522,1.6586,1.6606,1.6598,1.6699,1.6733,1.6804,1.6819,1.6841,1.6855,1.6841,1.6905,1.6911,1.6916,1.6936,1.6943,1.6853,1.6853,1.6853,1.6853,0,1.6334,1.6383,1.6416,1.6477,1.6511,1.656,1.6592,1.6623,1.6635,1.666,1.6721,1.6762,1.6816,1.6834,1.6847,1.6907,1.6902,1.6899,1.6885,1.6923,1.6942,1.695,1.6854,1.6854,1.6854,1.6854,0,0,1.6386,1.6458,1.647,1.6496,1.6552,1.659,1.6639,1.6691,1.6717,1.6759,1.68,1.6867,1.6865,1.6896,1.6913,1.6943,1.6986,1.6936,1.6938,1.6943,1.7053,1.7053,1.7062,1.699,1.6992,1.6993,1.7048,0,1.6442,1.653,1.6553,1.6627,1.6672,1.6684,1.6727,1.6765,1.6789,1.6829,1.6856,1.6902,1.6896,1.6915,1.6945,1.6974,1.7008,1.6971,1.7027,1.7029,1.7014,1.7072,1.7074,1.7124,1.7056,1.7057,1.7058,0,1.6521,1.6564,1.6642,1.669,1.6709,1.6747,1.6796,1.6835,1.6877,1.6893,1.6926,1.6939,1.6989,1.6972,1.7041,1.7015,1.7039,1.7057,1.7059,1.7065,1.7046,1.7079,1.7141,1.7148,1.707,1.7069,1.7068,0,1.6549,1.6627,1.6683,1.6705,1.6763,1.6789,1.6814,1.6856,1.6885,1.6927,1.6946,1.6994,1.702,1.7056,1.7081,1.7067,1.7147,1.7132,1.716,1.7159,1.7176,1.7175,1.7242,1.7193,1.7193,1.7193,1.7193,0,1.6609,1.6656,1.6696,1.6731,1.6783,1.6809,1.6859,1.6885,1.6921,1.696,1.6974,1.701,1.7042,1.7082,1.7102,1.7154,1.7166,1.7179,1.7184,1.7178,1.7176,1.7194,1.7191,1.7195,1.7194,1.7194,1.7194,0,1.665,1.6679,1.6741,1.679,1.6803,1.6839,1.6881,1.6914,1.6938,1.6987,1.7,1.7037,1.7084,1.7113,1.7173,1.7187,1.7244,1.7248,1.723,1.7232,1.7257,1.7254,1.7338,1.735,1.7293,1.7294,1.7294,0,1.6686,1.6723,1.6775,1.6802,1.6827,1.6871,1.69,1.6926,1.6956,1.7006,1.7033,1.7081,1.7121,1.7196,1.7228,1.7274,1.7278,1.7305,1.7285,1.7277,1.7277,1.7275,1.7278,1.7308,1.7308,1.7309,1.7309,0,1.6747,1.6759,1.6801,1.6847,1.6882,1.692,1.6957,1.6978,1.701,1.7043,1.7091,1.7122,1.7183,1.723,1.7278,1.7303,1.7311,1.7315,1.7323,1.7317,1.7304,1.731,1.7238,1.7313,1.7312,1.7312,1.7312,1.7312,1.6787,1.6818,1.686,1.6905,1.6936,1.697,1.7003,1.703,1.7071,1.7122,1.7134,1.7185,1.7225,1.729,1.7316,1.7356,1.7351,1.7364,1.7367,1.737,1.737,1.7298,1.7365,1.7364,1.7364,1.7364,1.7364,0,1.6847,1.6874,1.6915,1.6967,1.7002,1.7005,1.7047,1.7076,1.712,1.7156,1.7195,1.7249,1.7295,1.7329,1.7376,1.74,1.7405,1.7411,1.741,1.7415,1.7372,1.7359,1.7407,1.7407,1.7407,1.7407,1.7407,1.7407,1.6883,1.6936,1.6953,1.7021,1.7047,1.7096,1.7119,1.715,1.7179,1.7239,1.7276,1.7299,1.7334,1.7382,1.7424,1.7433,1.7449,1.7455,1.7464,1.7423,1.7418,1.7414,1.7402,1.7458,1.7458,1.7504,1.7504,1.7505]}]]